User: anonymous   Login
Location: Buckeye Ditch
(40.9104°N, 122.9517°W)
Time: 13:37:20
(UTC+00:00)
Language:

RESURS DK-1 - Orbit

View from above orbital plane
View from above orbital plane
View from above satellite
View from above satellite

Ground track
Ground track

The orbit data is extracted from the following two-line orbital elements,

1 29228U 06021A   24175.92210363  .00002701  00000-0  18501-3 0  9995
2 29228  69.9357  44.4784 0004856 323.3233  36.7597 15.07347316993338
Epoch (UTC): 23 June 2024 22:07:49
Eccentricity: 0.0004856
inclination: 69.9357°
perigee height: 541 km
apogee height: 547 km
right ascension of ascending node: 44.4784°
argument of perigee: 323.3233°
revolutions per day: 15.07347316
mean anomaly at epoch: 36.7597°
orbit number at epoch: 99333

The dashed part of the orbit path shows where the satellite is in the earth's shadow,  

DLR